TimeEST,TemperatureF,Dew PointF,Humidity,Sea Level PressureIn,VisibilityMPH,Wind Direction,Wind SpeedMPH,Gust SpeedMPH,PrecipitationIn,Events,Conditions,WindDirDegrees,DateUTC
12:53 AM,46.9,42.1,83,30.24,7.0,Calm,Calm,-,N/A,,Clear,0,2014-03-02 05:53:00
1:53 AM,46.0,41.0,83,30.23,7.0,Calm,Calm,-,N/A,,Clear,0,2014-03-02 06:53:00
2:53 AM,43.0,39.9,89,30.22,7.0,Calm,Calm,-,N/A,,Clear,0,2014-03-02 07:53:00
3:53 AM,42.1,39.0,89,30.20,6.0,Calm,Calm,-,N/A,,Clear,0,2014-03-02 08:53:00
4:53 AM,42.1,39.0,89,30.20,6.0,Calm,Calm,-,N/A,,Clear,0,2014-03-02 09:53:00
5:53 AM,41.0,37.9,89,30.22,6.0,Calm,Calm,-,N/A,,Clear,0,2014-03-02 10:53:00
6:53 AM,39.9,37.9,93,30.25,6.0,Calm,Calm,-,N/A,,Clear,0,2014-03-02 11:53:00
7:53 AM,44.1,41.0,89,30.25,5.0,Calm,Calm,-,N/A,,Clear,0,2014-03-02 12:53:00
8:53 AM,52.0,45.0,77,30.27,6.0,Calm,Calm,-,N/A,,Haze,0,2014-03-02 13:53:00
9:53 AM,60.1,46.9,62,30.26,9.0,South,4.6,-,N/A,,Clear,180,2014-03-02 14:53:00
10:53 AM,66.0,44.1,45,30.25,10.0,SSE,4.6,-,N/A,,Clear,150,2014-03-02 15:53:00
11:53 AM,70.0,43.0,38,30.23,10.0,South,4.6,-,N/A,,Clear,170,2014-03-02 16:53:00
12:53 PM,73.0,44.1,35,30.19,10.0,South,6.9,-,N/A,,Clear,180,2014-03-02 17:53:00
1:53 PM,75.0,44.1,33,30.15,10.0,South,10.4,17.3,N/A,,Clear,170,2014-03-02 18:53:00
2:53 PM,75.0,43.0,32,30.13,10.0,SSW,9.2,16.1,N/A,,Clear,210,2014-03-02 19:53:00
3:53 PM,75.9,44.1,32,30.11,10.0,SW,9.2,-,N/A,,Clear,230,2014-03-02 20:53:00
4:53 PM,75.0,45.0,34,30.09,10.0,SW,9.2,-,N/A,,Clear,220,2014-03-02 21:53:00
5:53 PM,73.0,44.1,35,30.08,10.0,SW,5.8,-,N/A,,Clear,230,2014-03-02 22:53:00
6:53 PM,66.0,45.0,47,30.07,10.0,SSW,3.5,-,N/A,,Clear,210,2014-03-02 23:53:00
7:53 PM,61.0,46.0,58,30.06,10.0,South,3.5,-,N/A,,Clear,170,2014-03-03 00:53:00
8:53 PM,60.1,44.1,55,30.06,10.0,South,5.8,-,N/A,,Clear,180,2014-03-03 01:53:00
9:53 PM,61.0,48.0,62,30.06,10.0,SSW,6.9,-,N/A,,Clear,200,2014-03-03 02:53:00
10:53 PM,60.1,51.1,72,30.06,10.0,SSW,8.1,-,N/A,,Clear,200,2014-03-03 03:53:00
11:53 PM,55.9,51.1,84,30.04,10.0,SSW,4.6,-,N/A,,Clear,210,2014-03-03 04:53:00